Regional Weather Roundup
Issued by NWS

Home | Current Version | Previous Version | Text Only | Print | Product List | Glossary On
Versions: 1 2 3 4 5 6 7 8 9 10 11 12 13 14 15 16 17 18 19 20 21 22 23 24 25 26 27 28 29 30 31 32 33 34 35 36 37 38 39 40 41 42 43 44 45 46 47 48 49 50
000
ASUS43 KLSX 220510
RWRMO

WEATHER SUMMARY FOR MISSOURI
NATIONAL WEATHER SERVICE SPRINGFIELD MO
1100 PM CST TUE FEB 21 2017

NOTE: "FAIR" INDICATES FEW OR NO CLOUDS BELOW 12,000 FEET WITH NO
       SIGNIFICANT WEATHER AND/OR OBSTRUCTIONS TO VISIBILITY.
       CURRENT SKY AND/OR WEATHER CONDITIONS ARE NOT AVAILABLE FOR
       CHILLICOTHE AND FARMINGTON.

MOZ001>031-035>038-043-044-053-054-220600-
...NORTHERN AND WESTERN MISSOURI...

CITY           SKY/WX    TMP DP  RH WIND       PRES   REMARKS
KANSAS CTY INT CLEAR     52  33  48 SW8       29.88F
KANSAS C DTWN  CLEAR     54  38  54 SW5       29.88S
LEE`S SUMMIT   CLEAR     54  45  71 S8        29.88F
ST JOSEPH      CLEAR     42  37  82 S7        29.87S
CHILLICOTHE      N/A     44  38  79 CALM      29.87F
KIRKSVILLE     CLEAR     53  51  93 S8        29.86F

$$
MOZ066>068-077>081-088>096-101>105-220600-
...SOUTHWEST MISSOURI...

CITY           SKY/WX    TMP DP  RH WIND       PRES   REMARKS
SPRINGFIELD    FOG       48  48 100 S3        29.90S VSB 1/2
JOPLIN         CLEAR     53  50  89 S5        29.93S
BRANSON        CLOUDY    55  55 100 E7        29.92S

$$
MOZ032>034-039>042-045>050-055>058-069>072-220600-
...CENTRAL MISSOURI...

CITY           SKY/WX    TMP DP  RH WIND       PRES   REMARKS
COLUMBIA       FOG       53  53 100 S5        29.88F VSB 1/4
JEFFERSON CITY FOG       51  51 100 CALM      29.88F VSB 1/4
ROLLA          FOG       52  52 100 SE5       29.88S VSB 1/2
SEDALIA        CLEAR     56  53  90 S8        29.90S
WHITEMAN AFB   CLEAR     51  51 100 S8        29.88S
WARRENSBURG    CLEAR     48  45  87 S5        29.88F
OSAGE BEACH    FOG       52  52 100 CALM      29.90  VSB 3/4

$$
MOZ051-052-059>065-220600-
...EAST CENTRAL MISSOURI...

CITY           SKY/WX    TMP DP  RH WIND       PRES   REMARKS
ST LOUIS INTL  FOG       56  54  93 SE5       29.88F VSB 1
SPIRIT OF STL  FOG       53  53 100 SE3       29.87F VSB 1/4
ST CHARLES     FOG       50  50 100 E6        29.86F VSB 1/4

$$
MOZ072>076-082>087-097>100-106>115-220600-
...SOUTH CENTRAL AND SOUTHEAST MISSOURI...

CITY           SKY/WX    TMP DP  RH WIND       PRES   REMARKS
CAPE GIRARDEAU CLOUDY    59  55  87 S5        29.91S
FARMINGTON     CLOUDY    55  54  96 CALM      29.92S
POPLAR BLUFF   CLOUDY    60  58  92 E5        29.91R
WEST PLAINS    CLOUDY    54  53  97 NW3       29.92F FOG

$$




USA.gov is the U.S. government's official web portal to all federal, state and local government web resources and services.